Lebanon, Oregon, United States (97355)
Lat: 44.54N, Lon: 122.91W
Wx Zone: ORZ008
Local Info
Past Weather Observations for Today

NOTE: This archive is for the closest National Weather Service station to Lebanon. Information may differ from the station used for current weather conditions.

Click here for Long-term Archive

Time Weather Temperature Dewpoint Humidity Pressure Winds Precip Visibility
12:15
Fair
61°F / 16°C 45°F / 7°C 55% 30.33 in
(1027 mb)
NE 11.5 mph
(NE 19 kph)
- 10SM
11:55
Fair
61°F / 16°C 45°F / 7°C 55% 30.33 in
(1027 mb)
NE 11.5 mph
(NE 19 kph)
- 10SM
11:35
Fair
61°F / 16°C 43°F / 6°C 52% 30.33 in
(1027 mb)
ENE 10.4 mph
(ENE 17 kph)
- 10SM
11:15
Fair
61°F / 16°C 43°F / 6°C 52% 30.33 in
(1027 mb)
NE 10.4 mph
(NE 17 kph)
- 10SM
10:55
Fair
59°F / 15°C 43°F / 6°C 55% 30.33 in
(1027 mb)
NE 6.9 mph
(NE 11 kph)
- 10SM
10:35
Fair
59°F / 15°C 43°F / 6°C 55% 30.36 in
(1028 mb)
NE 11.5 mph
(NE 19 kph)
- 10SM
10:15
Fair
57°F / 14°C 43°F / 6°C 59% 30.36 in
(1028 mb)
NE 8.1 mph
(NE 13 kph)
- 10SM
09:55
Fair
57°F / 14°C 41°F / 5°C 55% 30.36 in
(1028 mb)
ENE 5.8 mph
(ENE 9 kph)
- 10SM
09:35
Fair
55°F / 13°C 41°F / 5°C 59% 30.36 in
(1028 mb)
NE 6.9 mph
(NE 11 kph)
- 10SM
09:15
Fair
55°F / 13°C 41°F / 5°C 59% 30.36 in
(1028 mb)
NE 11.5 mph
(NE 19 kph)
- 10SM
08:55
Fair
54°F / 12°C 39°F / 4°C 58% 30.36 in
(1028 mb)
NE 12.7 mph
(NE 20 kph)
- 10SM
08:35
Fair
54°F / 12°C 41°F / 5°C 63% 30.36 in
(1028 mb)
NNE 9.2 mph
(NNE 15 kph)
- 10SM
08:15
Fair
52°F / 11°C 39°F / 4°C 62% 30.36 in
(1028 mb)
NNE 6.9 mph
(NNE 11 kph)
- 10SM
07:55
Fair
52°F / 11°C 43°F / 6°C 72% 30.39 in
(1029 mb)
NNE 3.5 mph
(NNE 6 kph)
- 10SM
07:35
Fair
48°F / 9°C 45°F / 7°C 87% 30.36 in
(1028 mb)
Calm - 10SM
07:15
Fair
46°F / 8°C 43°F / 6°C 87% 30.36 in
(1028 mb)
Calm - 10SM
06:55
Fair
45°F / 7°C 43°F / 6°C 93% 30.36 in
(1028 mb)
Calm - 10SM
06:35
Fair
43°F / 6°C 43°F / 6°C 100% 30.36 in
(1028 mb)
Calm - 10SM
06:15
Fair
43°F / 6°C 39°F / 4°C 87% 30.36 in
(1028 mb)
Calm - 10SM
05:55
Fair
41°F / 5°C 37°F / 3°C 87% 30.36 in
(1028 mb)
Calm - 10SM
05:35
Fair
39°F / 4°C 37°F / 3°C 93% 30.36 in
(1028 mb)
Calm - 10SM
05:15
Fair
39°F / 4°C 37°F / 3°C 93% 30.33 in
(1027 mb)
Calm - 10SM
04:55
Fair
39°F / 4°C 37°F / 3°C 93% 30.33 in
(1027 mb)
SSW 4.6 mph
(SSW 7 kph)
- 10SM
04:35
Fair
43°F / 6°C 37°F / 3°C 81% 30.33 in
(1027 mb)
Calm - 10SM
04:15
Fair
43°F / 6°C 37°F / 3°C 81% 30.33 in
(1027 mb)
Calm - 10SM
03:55
Fair
43°F / 6°C 39°F / 4°C 87% 30.33 in
(1027 mb)
Calm - 10SM
03:35
Fair
45°F / 7°C 39°F / 4°C 81% 30.33 in
(1027 mb)
Calm - 10SM
03:15
Fair
45°F / 7°C 41°F / 5°C 87% 30.33 in
(1027 mb)
WNW 6.9 mph
(WNW 11 kph)
- 10SM
02:55
Fair
45°F / 7°C 41°F / 5°C 87% 30.3 in
(1026 mb)
NW 4.6 mph
(NW 7 kph)
- 10SM
02:35
Fair
45°F / 7°C 41°F / 5°C 87% 30.3 in
(1026 mb)
NW 4.6 mph
(NW 7 kph)
- 10SM
02:15
Fair
45°F / 7°C 41°F / 5°C 87% 30.3 in
(1026 mb)
NW 4.6 mph
(NW 7 kph)
- 10SM
01:55
Fair
45°F / 7°C 41°F / 5°C 87% 30.3 in
(1026 mb)
NW 4.6 mph
(NW 7 kph)
- 10SM
01:35
Fair
45°F / 7°C 41°F / 5°C 87% 30.3 in
(1026 mb)
NW 5.8 mph
(NW 9 kph)
- 10SM
01:15
Fair
45°F / 7°C 41°F / 5°C 87% 30.3 in
(1026 mb)
NW 4.6 mph
(NW 7 kph)
- 10SM
00:55
Fair
46°F / 8°C 41°F / 5°C 82% 30.3 in
(1026 mb)
NW 3.5 mph
(NW 6 kph)
- 10SM
00:35
Fair
46°F / 8°C 41°F / 5°C 82% 30.3 in
(1026 mb)
Calm - 10SM
00:15
Fair
46°F / 8°C 43°F / 6°C 87% 30.3 in
(1026 mb)
Calm - 10SM
Time Weather Temperature Dewpoint Humidity Pressure Winds Precip Visibility


Weather for websites

WeatherForYou.com, LLC is not responsible for any damages or problems caused by this service. Current weather conditions are obtained from the closest station including government and personal stations which may have varying degrees of accuracy. Weather forecasts are derived from the NOAA NDFD. Like all things, this site belongs to Jesus Christ... He just trusts us to maintain it. If you have any questions or comments email webmaster@weatherforyou.com

Copyright © 2016, WeatherForYou.com LLC. All rights reserved.